Temp
-10 -9 -9 -9 -9 -9 -9 -8 -8 -9 -9 -9 -9 -8 -8 -8 -8 -8 -8 -8 -8 -8 -8 -8 -8 -8 -8 -8 -8 -8 -8 -8 -8 -8 -9 -9 -10 -10 -10 -11 -11 -11 -11
-10 -10 -10 -10 -10 -9 -9 -9 -9 -9 -9 -9 -9 -9 -9 -9 -9 -9 -9 -8 -8 -8 -8 -8 -8 -8 -8 -8 -8 -8 -8 -8 -8 -8 -9 -9 -10 -10 -10 -11 -11 -11 -11
-10 -10 -10 -10 -10 -10 -10 -10 -10 -9 -9 -10 -10 -9 -9 -9 -9 -9 -9 -9 -9 -9 -9 -9 -9 -8 -8 -8 -8 -8 -8 -8 -8 -8 -9 -9 -10 -10 -10 -11 -11 -11 -11
-10 -11 -11 -10 -10 -10 -10 -10 -10 -10 -9 -9 -10 -10 -10 -9 -9 -9 -9 -9 -9 -9 -9 -9 -9 -9 -9 -9 -9 -8 -8 -8 -9 -9 -9 -9 -10 -10 -11 -11 -10 -11 -10
-11 -11 -11 -11 -10 -10 -10 -10 -10 -10 -10 -10 -10 -10 -10 -10 -10 -10 -10 -10 -10 -9 -9 -9 -9 -9 -9 -9 -9 -9 -9 -9 -9 -9 -9 -9 -10 -10 -10 -10 -11 -11 -10
-11 -11 -11 -11 -11 -11 -11 -10 -10 -10 -10 -10 -10 -11 -11 -11 -11 -10 -10 -10 -10 -10 -9 -9 -9 -9 -9 -9 -9 -9 -9 -9 -9 -9 -9 -9 -10 -10 -10 -10 -11 -11 -11
-11 -11 -10 -10 -11 -11 -11 -11 -11 -11 -10 -10 -10 -11 -11 -11 -11 -11 -10 -10 -10 -10 -10 -9 -9 -9 -9 -9 -9 -9 -9 -9 -9 -9 -9 -9 -9 -10 -10 -10 -10 -11 -11
-11 -11 -11 -11 -11 -11 -11 -11 -11 -11 -11 -11 -10 -10 -11 -11 -11 -11 -11 -11 -11 -10 -10 -10 -10 -9 -9 -9 -9 -9 -9 -9 -9 -9 -9 -9 -9 -10 -10 -10 -10 -10 -11
-12 -11 -11 -11 -11 -11 -11 -10 -10 -10 -11 -11 -11 -11 -10 -11 -11 -11 -11 -11 -11 -11 -10 -10 -10 -10 -10 -10 -10 -10 -10 -10 -10 -10 -10 -9 -9 -10 -10 -10 -10 -10 -11
-12 -12 -11 -11 -11 -11 -11 -11 -11 -11 -11 -11 -11 -11 -11 -11 -11 -11 -12 -12 -11 -11 -11 -11 -10 -10 -10 -10 -10 -10 -10 -10 -10 -10 -10 -10 -10 -10 -10 -10 -10 -10 -11
-12 -12 -11 -11 -11 -11 -11 -11 -11 -11 -11 -11 -11 -11 -12 -12 -11 -11 -11 -11 -12 -11 -11 -11 -11 -10 -10 -10 -10 -10 -10 -10 -10 -10 -10 -10 -10 -10 -10 -10 -11 -11 -11
-12 -12 -12 -12 -12 -12 -12 -11 -11 -11 -11 -11 -11 -11 -11 -12 -12 -12 -11 -11 -11 -12 -12 -11 -11 -11 -11 -10 -11 -11 -10 -10 -10 -10 -10 -10 -10 -10 -10 -10 -11 -11 -11
-13 -12 -12 -11 -11 -11 -12 -12 -11 -11 -11 -11 -11 -11 -12 -12 -12 -12 -12 -12 -11 -12 -12 -12 -11 -11 -11 -11 -11 -11 -11 -11 -11 -11 -10 -10 -10 -11 -10 -11 -11 -11 -11
-12 -12 -11 -11 -12 -11 -11 -11 -11 -12 -12 -11 -11 -11 -11 -12 -11 -12 -12 -13 -12 -12 -12 -12 -12 -12 -11 -11 -11 -11 -11 -11 -11 -11 -11 -11 -11 -11 -11 -10 -11 -11 -11
-12 -12 -12 -12 -11 -11 -11 -11 -11 -11 -11 -11 -11 -11 -12 -12 -12 -12 -12 -12 -13 -12 -12 -12 -12 -12 -12 -11 -11 -11 -12 -11 -11 -11 -11 -11 -11 -11 -11 -11 -11 -11 -11
-12 -12 -12 -12 -12 -12 -12 -12 -11 -11 -11 -11 -11 -11 -11 -12 -12 -12 -12 -12 -13 -13 -13 -13 -12 -12 -12 -12 -11 -11 -12 -12 -11 -11 -12 -12 -11 -11 -12 -12 -11 -11 -11
-12 -12 -12 -12 -12 -12 -12 -12 -12 -12 -12 -12 -12 -12 -12 -12 -12 -12 -12 -12 -13 -13 -13 -13 -13 -12 -12 -12 -12 -12 -12 -12 -12 -11 -12 -12 -12 -12 -12 -12 -12 -12 -12
-12 -12 -12 -12 -12 -12 -12 -12 -12 -12 -12 -12 -12 -12 -12 -12 -12 -12 -13 -13 -12 -13 -12 -14 -13 -12 -12 -12 -12 -12 -12 -12 -12 -12 -11 -12 -12 -12 -12 -12 -12 -12 -12
-12 -12 -12 -12 -12 -12 -12 -12 -12 -12 -12 -12 -12 -12 -12 -12 -12 -12 -12 -13 -13 -13 -12 -13 -13 -13 -12 -12 -12 -12 -12 -12 -12 -12 -12 -12 -12 -12 -12 -12 -12 -12 -12
-12 -12 -12 -13 -13 -13 -12 -12 -12 -12 -12 -12 -12 -12 -12 -12 -13 -12 -12 -12 -13 -13 -13 -12 -13 -13 -13 -13 -13 -13 -12 -12 -12 -12 -12 -12 -12 -12 -12 -12 -12 -12 -12
-12 -12 -12 -13 -13 -13 -13 -12 -12 -12 -12 -12 -13 -13 -12 -12 -12 -13 -13 -13 -13 -13 -13 -13 -12 -12 -13 -13 -13 -13 -13 -12 -12 -12 -13 -13 -13 -13 -13 -13 -13 -13 -13
-13 -14 -14 -14 -13 -13 -13 -12 -12 -12 -12 -13 -13 -13 -13 -13 -13 -12 -12 -13 -13 -13 -13 -13 -13 -12 -12 -12 -13 -13 -13 -12 -12 -13 -13 -13 -13 -13 -13 -13 -13 -13 -13
-14 -14 -14 -14 -13 -13 -13 -13 -13 -13 -13 -14 -15 -16 -17 -17 -15 -14 -14 -13 -13 -13 -13 -13 -13 -11 -11 -13 -13 -12 -12 -12 -13 -13 -13 -13 -13 -13 -14 -14 -14 -14 -13
-15 -15 -15 -14 -14 -13 -13 -13 -14 -16 -16 -16 -16 -15 -16 -16 -16 -15 -15 -14 -13 -13 -13 -13 -13 -13 -13 -12 -14 -12 -13 -13 -13 -14 -13 -14 -13 -13 -14 -14 -14 -14 -14
-16 -15 -15 -15 -15 -15 -16 -16 -16 -15 -15 -16 -16 -15 -16 -16 -16 -16 -15 -15 -15 -13 -14 -14 -13 -13 -12 -13 -13 -13 -13 -13 -13 -14 -14 -14 -14 -14 -14 -14 -14 -14 -14
-16 -16 -15 -17 -17 -17 -16 -16 -15 -15 -16 -16 -16 -16 -16 -16 -16 -16 -16 -15 -15 -15 -14 -14 -14 -13 -13 -13 -13 -13 -13 -13 -13 -13 -14 -14 -14 -14 -14 -14 -13 -14 -14
Height
5865 5865 5865 5865 5865 5864 5863 5862 5861 5861 5860 5859 5857 5857 5856 5856 5856 5855 5855 5854 5854 5853 5852 5851 5850 5850 5849 5848 5846 5845 5844 5843 5841 5840 5839 5838 5836 5835 5834 5833 5832 5831 5829
5862 5863 5863 5863 5862 5861 5860 5859 5858 5857 5857 5856 5855 5854 5853 5853 5853 5853 5852 5852 5851 5850 5850 5849 5848 5848 5847 5846 5845 5844 5842 5841 5840 5839 5837 5837 5836 5834 5833 5831 5831 5830 5828
5859 5859 5858 5859 5858 5858 5857 5855 5854 5854 5854 5853 5852 5851 5850 5850 5850 5850 5850 5850 5848 5848 5848 5846 5846 5846 5846 5845 5844 5842 5841 5839 5838 5837 5836 5835 5834 5832 5830 5830 5829 5829 5828
5854 5854 5854 5854 5854 5853 5852 5851 5851 5851 5851 5850 5849 5848 5847 5847 5848 5848 5847 5847 5846 5845 5844 5843 5843 5843 5843 5843 5842 5840 5839 5838 5837 5836 5835 5833 5832 5831 5829 5828 5828 5826 5825
5848 5849 5850 5850 5849 5849 5848 5846 5846 5845 5845 5844 5844 5844 5844 5844 5844 5845 5844 5844 5843 5842 5841 5840 5839 5839 5840 5840 5840 5839 5837 5836 5836 5834 5833 5832 5831 5829 5827 5826 5825 5824 5823
5844 5846 5846 5846 5844 5844 5844 5844 5842 5841 5841 5841 5841 5841 5841 5840 5841 5841 5841 5841 5840 5839 5838 5837 5836 5836 5836 5837 5837 5837 5836 5834 5833 5832 5831 5830 5829 5828 5826 5824 5823 5822 5821
5841 5842 5841 5840 5839 5839 5838 5838 5838 5837 5837 5837 5836 5836 5835 5835 5835 5837 5837 5837 5836 5835 5834 5834 5833 5832 5832 5833 5833 5834 5833 5832 5831 5830 5829 5828 5827 5826 5824 5822 5821 5819 5817
5837 5836 5835 5834 5835 5834 5833 5832 5832 5831 5831 5830 5830 5830 5830 5831 5831 5832 5833 5832 5832 5832 5831 5830 5830 5830 5830 5829 5830 5830 5830 5830 5830 5828 5827 5826 5824 5823 5822 5820 5819 5817 5815
5831 5831 5830 5828 5827 5828 5828 5828 5827 5825 5824 5824 5825 5825 5825 5825 5825 5826 5827 5827 5828 5828 5828 5827 5826 5826 5826 5826 5826 5826 5826 5826 5827 5826 5825 5824 5823 5821 5820 5819 5818 5816 5814
5824 5824 5824 5824 5822 5822 5821 5822 5820 5819 5818 5819 5820 5820 5821 5821 5821 5821 5821 5821 5822 5823 5823 5823 5823 5823 5823 5822 5823 5822 5821 5822 5823 5823 5822 5822 5821 5821 5819 5818 5816 5816 5813
5818 5817 5816 5815 5816 5815 5815 5815 5815 5812 5814 5813 5813 5813 5814 5815 5817 5816 5816 5816 5817 5818 5818 5818 5818 5819 5819 5818 5818 5818 5818 5818 5818 5818 5819 5819 5818 5819 5817 5816 5815 5814 5812
5809 5809 5809 5808 5809 5809 5808 5808 5808 5807 5806 5806 5806 5806 5806 5808 5809 5811 5811 5810 5811 5811 5812 5813 5813 5814 5815 5815 5814 5814 5813 5814 5813 5814 5815 5815 5815 5816 5815 5814 5812 5811 5810
5799 5800 5800 5801 5802 5803 5802 5801 5801 5800 5800 5798 5798 5799 5799 5799 5800 5803 5804 5804 5804 5804 5805 5805 5807 5808 5809 5810 5810 5810 5809 5810 5810 5809 5810 5811 5811 5812 5813 5812 5811 5809 5808
5793 5793 5793 5792 5792 5792 5794 5794 5792 5792 5792 5792 5791 5790 5791 5791 5791 5792 5794 5796 5797 5798 5798 5799 5800 5801 5802 5804 5805 5805 5805 5805 5805 5806 5806 5807 5807 5807 5808 5808 5807 5807 5806
5785 5785 5785 5786 5785 5784 5784 5785 5784 5783 5783 5783 5783 5781 5780 5781 5781 5782 5784 5785 5788 5790 5792 5791 5792 5793 5795 5797 5799 5799 5799 5800 5800 5801 5801 5802 5803 5803 5803 5803 5803 5804 5803
5779 5779 5777 5776 5775 5775 5775 5775 5775 5774 5774 5774 5773 5771 5770 5770 5771 5771 5773 5775 5776 5780 5782 5782 5784 5785 5787 5791 5793 5794 5793 5794 5795 5796 5796 5797 5798 5799 5799 5800 5800 5799 5799
5771 5769 5768 5767 5767 5765 5764 5763 5763 5764 5763 5762 5762 5761 5759 5759 5759 5761 5762 5763 5765 5767 5770 5772 5776 5777 5779 5781 5785 5786 5787 5789 5789 5790 5792 5792 5792 5793 5793 5794 5795 5795 5794
5763 5761 5759 5757 5756 5754 5752 5750 5749 5748 5749 5750 5748 5748 5748 5746 5745 5746 5749 5751 5754 5754 5758 5760 5766 5768 5770 5772 5774 5778 5780 5782 5783 5783 5785 5786 5786 5788 5789 5788 5789 5790 5790
5755 5752 5748 5746 5743 5741 5740 5739 5737 5734 5733 5733 5734 5732 5731 5732 5730 5731 5734 5738 5741 5741 5743 5749 5753 5757 5760 5763 5765 5767 5770 5773 5777 5776 5778 5780 5780 5781 5783 5783 5785 5785 5784
5742 5739 5736 5733 5730 5727 5724 5723 5722 5721 5719 5716 5715 5715 5713 5714 5715 5714 5717 5721 5725 5728 5732 5736 5741 5744 5748 5752 5754 5755 5759 5762 5768 5771 5770 5773 5775 5774 5777 5778 5780 5780 5780
5729 5725 5721 5719 5716 5712 5709 5706 5704 5702 5701 5698 5695 5694 5694 5694 5696 5698 5701 5702 5708 5712 5718 5724 5728 5729 5732 5740 5742 5744 5749 5754 5757 5763 5763 5765 5767 5768 5770 5771 5773 5775 5776
5716 5711 5706 5703 5700 5697 5693 5690 5687 5685 5682 5679 5674 5671 5670 5670 5672 5675 5680 5686 5690 5696 5701 5709 5710 5707 5715 5724 5729 5735 5739 5743 5748 5753 5755 5758 5760 5761 5762 5763 5766 5766 5767
5702 5698 5695 5689 5686 5682 5678 5675 5670 5665 5660 5655 5651 5649 5648 5647 5648 5650 5655 5664 5673 5677 5684 5691 5697 5690 5696 5708 5714 5723 5726 5735 5741 5742 5748 5748 5752 5755 5754 5755 5759 5760 5760
5691 5687 5682 5676 5671 5666 5660 5655 5651 5647 5645 5640 5636 5634 5633 5631 5633 5634 5635 5639 5651 5658 5665 5675 5682 5682 5674 5690 5694 5708 5714 5722 5725 5732 5736 5738 5741 5746 5747 5747 5750 5752 5753
5678 5674 5669 5662 5655 5650 5645 5641 5638 5634 5629 5626 5623 5621 5620 5618 5618 5619 5622 5624 5629 5639 5646 5654 5661 5671 5675 5679 5681 5696 5703 5710 5716 5722 5726 5728 5730 5737 5738 5737 5740 5743 5744
5667 5661 5655 5649 5644 5639 5635 5629 5625 5621 5616 5613 5610 5608 5606 5605 5602 5602 5603 5605 5611 5617 5624 5633 5644 5657 5664 5673 5679 5683 5690 5697 5705 5711 5714 5718 5720 5725 5728 5729 5731 5735 5735
Wind_Speed
27 29 27 26 26 26 26 24 21 17 17 19 21 21 19 18 15 14 16 18 17 16 16 14 15 15 15 14 12 11 12 14 15 15 15 12 9 11 11 9 9 13 12
28 28 28 29 30 28 27 27 25 22 18 19 21 22 20 17 14 12 13 17 18 17 16 16 16 15 15 15 15 13 12 13 14 13 14 13 12 14 11 7 11 13 14
27 27 29 32 33 31 30 31 29 26 24 22 21 23 23 19 16 14 14 16 17 17 17 17 17 17 15 14 14 14 13 13 13 12 12 12 13 12 10 8 12 14 14
28 31 31 30 30 31 32 31 30 28 27 26 25 24 24 24 20 19 17 17 18 18 18 17 17 18 17 15 14 13 13 13 12 11 10 11 11 12 12 12 14 15 16
30 28 28 29 30 30 30 30 30 28 27 27 27 24 24 24 22 21 19 19 19 19 20 18 18 18 19 17 15 13 12 13 12 10 9 10 10 12 14 14 15 16 17
31 29 29 30 31 32 32 32 31 30 28 27 27 25 24 22 20 21 19 19 17 19 19 19 19 19 18 18 17 14 13 13 10 9 9 10 12 12 15 14 16 17 16
33 33 33 32 33 32 32 31 31 31 31 29 28 27 26 24 21 20 20 19 18 19 19 19 20 19 18 18 18 17 15 14 11 7 7 9 10 10 14 15 17 17 17
34 36 36 36 36 35 34 31 31 33 33 31 30 28 28 26 23 21 21 20 19 19 19 19 19 19 19 18 17 19 18 16 14 9 8 7 11 12 10 13 14 15 15
32 33 32 33 35 36 35 34 34 33 33 33 34 33 30 28 26 23 22 22 21 20 20 21 19 18 18 18 17 17 19 18 16 12 10 9 12 9 9 11 13 13 13
22 23 27 29 32 33 33 33 35 35 35 35 34 34 35 33 31 28 25 24 22 22 23 24 22 21 19 18 17 17 19 17 16 14 13 13 13 12 12 10 11 12 12
23 23 25 27 28 30 31 31 32 37 36 37 37 35 35 35 38 35 31 28 25 25 25 25 25 23 21 19 18 17 19 18 18 18 16 16 15 14 14 12 11 11 11
27 29 30 31 30 29 30 31 32 34 36 37 38 39 37 34 34 37 37 33 31 28 28 28 27 24 23 20 17 17 18 17 17 17 17 17 17 16 16 15 13 13 11
36 34 31 30 31 31 33 35 37 39 38 40 40 39 40 39 37 35 37 40 37 32 31 30 29 28 27 21 16 17 18 17 16 15 15 17 17 17 17 18 15 16 13
32 31 31 32 32 33 33 34 37 37 38 40 43 45 43 43 42 40 37 39 41 38 34 34 31 31 29 27 22 19 21 18 15 15 13 16 17 16 17 16 17 17 15
34 33 33 33 34 35 35 34 35 38 40 42 43 45 46 47 46 45 44 42 42 43 38 38 36 35 32 30 27 23 23 21 17 15 13 12 12 15 15 15 16 16 14
37 37 38 39 40 38 37 38 38 39 41 43 45 48 50 50 49 50 50 48 45 45 45 43 41 40 36 34 32 29 27 24 22 18 15 14 13 15 15 14 15 14 14
42 44 43 42 41 42 44 46 46 45 47 49 49 51 53 53 54 52 52 53 50 51 50 48 45 45 42 37 36 34 32 29 26 23 20 16 14 15 15 13 13 12 14
44 45 48 50 51 50 50 52 53 54 54 56 58 58 56 59 59 58 55 54 54 56 50 50 48 49 46 42 39 39 36 35 30 28 25 21 17 15 15 15 15 13 14
50 53 53 54 55 56 57 56 56 59 60 62 63 63 61 59 63 64 60 58 55 59 54 52 53 52 50 46 43 44 41 39 37 33 29 27 22 19 18 15 15 16 16
57 57 57 59 59 60 61 62 61 61 63 66 65 63 65 66 65 67 67 64 61 60 62 58 55 57 55 51 48 48 45 43 41 38 33 31 27 23 22 18 16 17 18
60 62 62 62 61 62 61 62 63 66 70 68 69 71 73 74 72 71 72 72 68 67 63 62 60 58 63 55 54 53 49 43 42 41 36 32 29 25 23 21 20 19 22
58 58 59 59 60 63 65 64 68 71 72 77 82 84 84 85 85 85 79 77 76 71 69 64 67 72 59 64 62 56 51 48 42 41 37 33 31 27 24 25 25 24 23
55 58 58 59 61 64 65 70 75 77 69 63 59 56 58 64 76 83 84 84 80 79 73 70 66 60 64 66 60 59 55 51 42 42 38 34 34 31 29 27 28 28 26
56 58 60 61 63 65 69 71 62 49 50 52 52 51 50 53 54 53 55 63 80 84 81 73 72 77 50 65 69 70 60 55 48 44 42 38 39 34 32 29 31 32 30
56 59 62 64 61 55 49 49 49 51 48 50 49 48 49 54 58 54 59 59 56 82 85 81 78 75 62 68 62 65 62 55 51 47 46 40 41 38 37 34 35 34 32
56 59 60 53 50 43 46 48 44 37 39 38 40 46 50 53 59 63 57 57 58 61 81 82 81 72 71 65 61 68 67 60 51 50 47 44 43 43 42 40 39 34 35
Wind_Direction
293 298 301 301 306 306 309 307 306 304 307 311 313 316 322 326 327 320 308 301 293 295 299 305 311 320 327 334 329 324 325 328 331 335 335 337 345 338 318 292 302 312 309
291 294 295 297 300 298 297 295 295 296 296 299 303 305 309 314 318 325 315 304 297 291 288 291 299 307 315 322 326 323 320 323 330 339 335 333 317 327 326 297 300 314 309
286 288 292 290 288 288 287 290 289 290 291 292 298 299 299 302 306 313 315 312 301 293 286 284 286 291 298 306 314 319 313 313 327 339 334 329 322 321 326 310 298 310 314
274 276 280 283 281 279 282 284 285 289 288 288 290 292 293 294 298 302 306 308 300 292 289 283 281 283 286 292 300 309 315 313 326 335 327 325 324 315 309 308 307 316 323
274 272 281 280 280 280 281 281 283 284 282 284 285 286 285 286 289 296 304 306 303 288 289 287 279 277 280 284 290 298 309 313 322 327 322 316 320 311 309 312 314 319 326
265 267 281 281 281 284 284 283 283 283 284 281 281 285 284 280 282 288 294 301 299 294 289 283 284 279 278 280 279 286 294 297 308 316 324 318 319 318 313 315 320 321 325
262 262 270 269 269 273 277 276 277 281 282 280 278 280 278 271 271 277 285 292 292 294 289 287 286 283 279 277 276 273 278 286 289 296 300 311 318 323 316 325 328 325 328
274 276 276 277 273 271 270 269 273 275 274 276 276 273 272 267 265 271 276 282 284 286 286 286 286 286 286 280 277 273 274 279 285 288 280 300 312 319 315 329 331 336 331
275 274 271 276 275 275 277 276 275 271 272 271 272 272 269 264 259 259 267 272 275 277 280 282 281 282 286 282 277 271 271 276 282 284 279 288 298 305 317 330 331 341 337
281 274 270 270 272 272 273 275 276 275 273 271 274 271 273 272 266 261 260 263 269 269 272 273 274 277 281 285 277 272 268 271 277 276 272 272 281 293 301 311 327 339 345
275 267 264 265 267 269 270 271 271 274 273 275 273 270 271 271 272 266 263 264 264 265 263 264 267 267 272 276 273 269 266 267 271 273 267 264 266 278 285 294 309 324 341
278 277 267 263 266 271 273 274 274 272 276 274 271 273 268 271 271 270 267 262 263 259 258 260 260 262 265 269 269 263 265 266 270 275 275 271 267 274 277 286 299 306 318
279 276 277 278 276 274 275 274 275 275 274 275 273 269 270 263 263 265 267 267 262 256 252 252 256 260 260 259 260 264 267 270 276 281 284 282 276 273 273 279 291 297 301
276 278 279 280 278 275 272 272 273 272 274 273 274 274 271 269 265 261 259 262 263 258 251 249 250 255 255 252 254 258 264 264 272 279 277 272 271 266 268 272 278 289 298
286 287 285 280 277 278 277 275 273 274 274 273 271 272 273 271 268 266 260 256 256 257 253 249 246 248 251 250 250 250 259 259 259 266 270 275 276 274 271 268 271 278 291
286 286 285 286 286 284 280 280 278 277 277 276 275 272 270 269 270 267 265 258 254 251 253 248 245 247 249 251 252 248 253 255 251 251 259 270 272 272 274 268 266 271 278
292 290 289 286 283 282 284 284 283 282 281 281 279 275 273 269 267 264 264 263 254 252 254 249 247 246 248 248 249 248 246 251 249 248 252 260 264 267 270 272 270 265 268
289 288 286 285 284 283 283 283 283 283 281 282 281 279 272 270 267 264 261 261 260 255 250 242 247 247 245 246 245 246 244 246 248 247 248 250 250 255 262 267 269 264 262
286 284 284 284 283 281 279 278 279 280 280 281 280 276 270 265 264 264 261 259 258 257 255 255 244 245 246 244 243 245 242 241 246 245 245 249 246 248 251 256 265 269 268
288 288 286 288 287 285 283 280 279 277 282 282 276 271 267 265 260 259 259 256 254 252 250 253 250 249 242 241 241 242 240 238 242 246 243 245 248 246 253 251 254 261 267
286 286 286 289 288 285 284 282 281 280 283 280 272 268 265 262 259 257 253 255 252 251 249 249 248 247 241 240 238 239 240 238 239 245 244 246 248 246 252 254 251 257 263
287 288 289 289 288 286 285 285 285 284 281 275 271 269 266 261 258 254 251 250 252 250 250 248 249 245 244 235 238 237 237 237 236 241 243 248 250 250 249 253 255 252 257
291 289 288 287 286 286 287 287 283 284 284 278 270 268 266 259 257 257 256 248 245 248 247 247 248 254 232 232 233 237 235 236 236 238 241 243 248 248 247 251 254 257 260
288 287 286 286 287 286 289 292 291 282 281 275 272 268 264 259 258 261 261 255 245 242 246 243 241 241 249 236 230 233 233 231 230 234 235 236 243 242 247 247 252 255 260
288 289 289 290 294 301 296 289 283 284 282 275 273 263 262 261 260 259 261 261 250 238 241 242 240 244 254 254 236 225 231 231 228 234 237 235 240 239 240 240 246 251 258
289 291 294 301 304 299 289 290 291 286 283 277 275 272 269 266 263 258 253 253 255 243 239 240 240 240 242 248 247 227 232 231 226 231 235 237 236 237 238 239 244 249 252